Montego Bay, Jamaica

12:11 AM EST on December 04, 2016 (GMT -0500)
Sangster International

Weather History for MKJS - February, 2013

Change the Weather History Date:

Saturday, February 23, 2013

  Actual Average Record
Temperature  
Mean Temperature 78 °F -  
Max Temperature 87 °F 82 °F 89 °F (2014)
Min Temperature 69 °F 73 °F 69 °F (2013)
Cooling Degree Days 13    
Growing Degree Days 28 (Base 50)    
Moisture  
Dew Point 70 °F    
Average Humidity 70    
Maximum Humidity 88    
Minimum Humidity 47    
Precipitation  
Precipitation 0.00 in - - ()
Sea Level Pressure  
Sea Level Pressure 29.95 in    
Wind  
Wind Speed 7 mph ()    
Max Wind Speed 17 mph    
Max Gust Speed -    
Visibility 8.1 miles    
Events      
Averages and records for this station are not official NWS values.
T = Trace of Precipitation, MM = Missing Value Source: Averaged Metar Reports

Daily Weather History Graph

Daily Weather History Graph

Search for Another Location

Airport or City:

Trip Planner

Search our weather history database for the weather conditions in past years. The results will help you decide how hot, cold, wet, or windy it might be!

Date:

Astronomy

Feb. 23, 2013 Rise Set
Actual Time 6:34 AM EST 6:15 PM EST
Civil Twilight 6:12 AM EST 6:37 PM EST
Nautical Twilight 5:46 AM EST 7:03 PM EST
Astronomical Twilight 5:21 AM EST 7:28 PM EST
Moon 4:32 PM EST (2/23) 4:44 AM EST (2/23)
Length of Visible Light 12h 25m
Length of Day
11h 41m
Waxing Gibbous, 95% of the Moon is Illuminated
Feb 23
Waxing Gibbous
Feb 25
Full
Mar 4
Last Quarter
Mar 11
New
Mar 19
First Quarter

Hourly Weather History & Observations

Time (EST) Temp. Heat Index Dew Point Humidity Pressure Visibility Wind Dir Wind Speed Gust Speed Precip Events Conditions
12:00 AM 78.8 °F - 71.6 °F 78% 29.98 in 6.2 mi South 3.5 mph - N/A   Partly Cloudy
1:00 AM 75 °F - 67 °F 71% 29.99 in 12 mi South 3.5 mph - -   Scattered Clouds
1:00 AM 75.2 °F - 68.0 °F 78% 29.98 in 6.2 mi South 3.5 mph - N/A   Partly Cloudy
2:00 AM 75.2 °F - 66.2 °F 73% 29.95 in 6.2 mi NE 4.6 mph - N/A   Partly Cloudy
3:00 AM 73.4 °F - 66.2 °F 78% 29.92 in 6.2 mi WSW 2.3 mph - N/A   Partly Cloudy
4:00 AM 72 °F - 65 °F 74% 29.94 in 12 mi South 2.3 mph - -   Scattered Clouds
4:00 AM 71.6 °F - 66.2 °F 83% 29.92 in 6.2 mi South 2.3 mph - N/A   Partly Cloudy
5:00 AM 71.6 °F - 68.0 °F 88% 29.92 in 6.2 mi SW 2.3 mph - N/A   Partly Cloudy
6:00 AM 75.2 °F - 64.4 °F 69% 29.95 in 6.2 mi ESE 3.5 mph - N/A   Partly Cloudy
7:00 AM 76 °F - 67 °F 66% 29.97 in 12 mi SE 5.8 mph - -   Mostly Cloudy
7:00 AM 75.2 °F - 66.2 °F 73% 29.95 in 6.2 mi SE 5.8 mph - N/A   Partly Cloudy
8:00 AM 78.8 °F - 68.0 °F 69% 29.98 in 6.2 mi SSE 5.8 mph - N/A   Mostly Cloudy
9:00 AM 78.8 °F - 68.0 °F 69% 29.98 in 6.2 mi WSW 4.6 mph - N/A   Partly Cloudy
10:00 AM 84 °F - 67 °F 47% 30.00 in 16 mi SSW 4.6 mph - -   Scattered Clouds
10:00 AM 84.2 °F 86.6 °F 66.2 °F 55% 29.98 in 6.2 mi SSW 4.6 mph - N/A   Partly Cloudy
11:00 AM 82.4 °F 86.3 °F 69.8 °F 66% 29.98 in 6.2 mi NNW 6.9 mph - N/A   Partly Cloudy
12:00 PM 82.4 °F 87.2 °F 71.6 °F 70% 29.95 in 6.2 mi NE 16.1 mph - N/A   Partly Cloudy
1:00 PM 83 °F - 72 °F 62% 29.95 in 16 mi ENE 13.8 mph - -   Partly Cloudy
1:00 PM 84.2 °F 89.6 °F 71.6 °F 66% 29.95 in 6.2 mi ENE 13.8 mph - N/A   Scattered Clouds
2:00 PM 84.2 °F 90.9 °F 73.4 °F 70% 29.92 in 6.2 mi NE 13.8 mph - N/A   Partly Cloudy
3:00 PM 84.2 °F 90.9 °F 73.4 °F 70% 29.89 in 6.2 mi NE 13.8 mph - N/A   Mostly Cloudy
4:00 PM 82 °F - 73 °F 67% 29.90 in 16 mi NE 16.1 mph - -   Mostly Cloudy
4:00 PM 82.4 °F 88.2 °F 73.4 °F 74% 29.86 in 6.2 mi NE 16.1 mph - N/A   Mostly Cloudy
5:00 PM 82.4 °F 87.2 °F 71.6 °F 70% 29.89 in 6.2 mi NE 15.0 mph - N/A   Mostly Cloudy
6:00 PM - - - N/A% - - ENE 16.1 mph - N/A   Unknown
7:00 PM 82 °F - 72 °F 65% 29.94 in 12 mi ENE 17.3 mph - -   Haze
7:00 PM 82.4 °F 87.2 °F 71.6 °F 70% 29.92 in 6.2 mi ENE 17.3 mph - N/A   Mostly Cloudy
8:00 PM 82.4 °F 88.2 °F 73.4 °F 74% 29.95 in 6.2 mi ENE 15.0 mph - N/A   Partly Cloudy
9:00 PM 84.2 °F 90.9 °F 73.4 °F 70% 29.95 in 6.2 mi ENE 13.8 mph - N/A   Partly Cloudy
10:00 PM 83 °F - 73 °F 65% 29.99 in 12 mi ENE 15.0 mph - -   Scattered Clouds
10:00 PM 82.4 °F 88.2 °F 73.4 °F 74% 29.98 in 6.2 mi ENE 15.0 mph - N/A   Partly Cloudy
11:00 PM 75.2 °F - 66.2 °F 73% 29.98 in 6.2 mi SSE 2.3 mph - N/A   Partly Cloudy